Regional Weather Roundup
Issued by NWS Columbia, SC

Home | Current Version | Previous Version | Text Only | Print | Product List | Glossary On
Versions: 1 2 3 4 5 6 7 8 9 10 11 12 13 14 15 16 17 18 19 20 21 22 23 24 25 26 27 28 29 30 31 32 33 34 35 36 37 38 39 40 41 42 43 44 45 46 47 48 49 50
000
ASUS42 KCAE 102110
RWRCAE
REGIONAL WEATHER ROUNDUP
NATIONAL WEATHER SERVICE COLUMBIA SC
500 PM EDT THU JUL 10 2014

NOTE: "FAIR" INDICATES FEW OR NO CLOUDS BELOW 12,000 FEET WITH NO
SIGNIFICANT WEATHER AND/OR OBSTRUCTIONS TO VISIBILITY.

NOT ALL STATIONS ARE QUALITY CONTROLLED BY THE NATIONAL
WEATHER SERVICE. USE DATA WITH CAUTION...ESPECIALLY
DEWPOINT OBSERVATIONS.

SCZ001>056-GAZ040-063>065-077-102200-
...UPSTATE SOUTH CAROLINA...

CITY           SKY/WX    TMP DP  RH WIND       PRES   REMARKS
ANDERSON       PTSUNNY   81  68  64 W7        30.05R
LIBERTY        MOCLDY    86  85  98 MISG      30.05S HX 111
SPARTANBURG    FAIR      77  77 100 NW5       30.06S
CLEMSON        PTSUNNY   84  66  54 W5        30.06F
GREENVILLE     CLOUDY    77  66  68 NE3       30.08F
GREENWOOD      PTSUNNY   89  67  47 SW5       30.04F
GREER          LGT RAIN  70  68  93 CALM      30.06S
ROCK HILL      PTSUNNY   84  69  60 NW8       30.04F
CHESTER        FAIR      88  72  58 NW3       30.04F
LAURENS        FAIR      86  68  54 CALM      30.05S


...CENTRAL SOUTH CAROLINA...

CITY           SKY/WX    TMP DP  RH WIND       PRES   REMARKS
COLUMBIA APT   MOSUNNY   94  66  39 SW7       29.99F HX  97
COLUMBIA OWENS MOSUNNY   88  71  57 CALM      30.01F
DARLINGTON     PTSUNNY   88  68  51 W14       30.03R
FLORENCE       PTSUNNY   91  66  43 SW12      29.99F
MCENTIRE ANGB  PTSUNNY   88  71  57 VRB1      30.01F
ORANGEBURG     MOSUNNY   91  68  46 SW10      30.01F HX  95
SUMTER SHAW    PTSUNNY   91  71  52 VRB3      29.99F HX  97
NEWBERRY       FAIR      90  68  48 SW5       30.05S
AIKEN          FAIR      90  70  51 SW8       30.05F HX  95
BARNWELL       FAIR      91  66  43 SW8       30.01F
MANNING        CLOUDY    82  79  89 W7        30.01R
CAMDEN         FAIR      81  72  74 SE3       30.03F
LANCASTER        N/A     84  75  74 N3        30.03S
WINNSBORO      FAIR      88  64  45 W7        30.02S


...EASTERN AND COASTAL SOUTH CAROLINA...

CITY           SKY/WX    TMP DP  RH WIND       PRES   REMARKS
MYRTLE BEACH   MOSUNNY   88  73  62 S18G28    30.01F HX  96
N MYRTLE BCH   PTSUNNY   84  75  74 S17G23    30.03F
CONWAY         MOCLDY    88  73  62 S8        30.01F HAZE    HX  96
MARION         TSTM      77  75  94 SE8       30.00F
HARTSVILLE     FAIR      77  59  53 W3        30.04R
FLORENCE       PTSUNNY   91  66  43 SW12      29.99F
DARLINGTON     PTSUNNY   88  68  51 W14       30.03R
CHARLESTON APT MOSUNNY   92  71  50 S17       30.02F HX  98
MOUNT PLEASANT FAIR      88  73  62 S15       30.04S HX  96
WALTERBORO       N/A     91  63  38 SW8       30.02S
BEAUFORT       PTSUNNY   90  76  63 SW8G20    30.03R HX 101


...EASTERN GEORGIA...

CITY           SKY/WX    TMP DP  RH WIND       PRES   REMARKS
AUGUSTA BUSH F MOSUNNY   92  65  40 S6        29.99F
AUGUSTA DANIEL MOSUNNY   94  67  41 SW8       30.01F HX  97
THOMSON        PTSUNNY   83  81  92 NW3       30.07S HX  97
WASHINGTON     FAIR      90  75  62 S3        30.03S THUNDER HX 100
CLAXTON        LGT RAIN  91  73  55 CALM      30.01F HX 100
SYLVANIA       PTCLDY    92  72  51 SW5       30.02F HX  99
STATESBORO     MOSUNNY   90  70  50 SW3       30.02S HX  95
SAVANNAH       PTSUNNY   88  71  57 SE14      30.03S


...SOUTHERN NORTH CAROLINA...

CITY           SKY/WX    TMP DP  RH WIND       PRES   REMARKS
CHARLOTTE      PTSUNNY   83  68  60 NW3       30.05F
MONROE         PTSUNNY   87  70  56 VRB3      30.03F
WADESBORO      CLOUDY    83  71  66 S7        30.03R HAZE
ROCKINGHAM     DRIZZLE   75  73  94 CALM      30.04R
RUTHERFORDTON  CLOUDY    76  67  72 E6        30.09F
ASHEVILLE      MOSUNNY   76  66  71 CALM      30.13F

$$



USA.gov is the U.S. government's official web portal to all federal, state and local government web resources and services.